EHI
0 0 0 0 0 0 0 0 0 0 0 0 0 0 0 0 0 0 0 0 0 0 0 0 0 0 1 2 2 2 1 0 0 0 0 0 0 0 0 0 0 0 0 0
0 0 0 0 0 0 0 0 0 0 0 0 0 0 0 0 0 0 0 0 0 0 0 0 0 0 0 1 1 1 0 0 0 0 0 0 0 0 0 0 0 0 0 0
0 0 0 0 0 0 0 0 0 0 0 0 0 0 0 0 0 0 0 0 0 0 0 0 0 0 0 0 0 0 0 0 0 0 0 0 0 0 0 0 0 0 0 0
0 0 0 0 0 0 0 0 0 0 0 0 0 0 0 0 0 0 0 0 0 0 0 0 0 0 0 0 0 0 0 0 0 0 0 0 0 0 0 0 0 0 0 0
0 0 0 0 0 0 0 0 0 0 0 0 0 0 0 0 0 0 0 0 0 0 0 0 0 0 0 0 0 0 0 0 0 0 0 0 0 0 0 0 0 0 0 0
0 0 0 0 0 0 0 0 0 0 0 0 0 0 0 0 0 0 0 0 0 0 0 0 0 0 0 0 0 0 0 0 0 0 0 0 0 0 0 0 0 0 0 0
0 0 0 0 0 0 0 0 0 0 0 0 0 0 0 0 0 0 0 0 0 0 0 0 0 0 0 0 0 0 0 0 0 0 0 0 0 0 0 0 0 0 0 0
0 0 0 0 0 0 0 0 0 0 0 0 0 0 0 0 0 0 0 0 0 0 0 0 0 0 0 0 0 0 0 0 0 0 0 0 0 0 0 0 0 0 0 0
0 0 0 0 0 0 0 0 0 0 0 0 0 0 0 0 0 0 0 0 0 0 0 0 0 0 0 0 0 0 0 0 0 0 0 0 0 0 0 0 0 0 0 0
0 0 0 0 0 0 0 0 0 0 0 0 0 0 0 0 0 0 0 0 0 0 0 0 0 0 0 0 0 0 0 0 0 0 0 0 0 0 0 0 0 0 0 0
0 0 0 0 0 0 0 0 0 0 0 0 0 0 0 0 0 0 0 0 0 0 0 0 0 0 0 0 0 0 0 0 0 0 0 0 0 0 0 0 0 0 0 0
0 0 0 0 0 0 0 0 0 0 0 0 0 0 0 0 0 0 0 0 0 0 0 0 0 0 0 0 0 0 0 0 0 0 0 0 0 0 0 0 0 0 0 0
0 0 0 0 0 0 0 0 0 0 0 0 0 0 0 0 0 0 0 0 0 0 0 0 0 0 0 0 0 0 0 0 0 0 0 0 0 0 0 0 0 0 0 0
0 0 0 0 0 0 0 0 0 0 0 0 0 0 0 0 0 0 0 0 0 0 0 0 0 0 0 0 0 0 0 0 0 0 0 0 0 0 0 0 0 0 0 0
0 0 0 0 0 0 0 0 0 0 0 0 0 0 0 0 0 0 0 0 0 0 0 0 0 0 0 0 0 0 0 0 0 0 0 0 0 0 0 0 0 0 0 0
0 0 0 0 0 0 0 0 0 0 0 0 0 0 0 0 0 0 0 0 0 0 0 0 0 0 0 0 0 0 0 0 0 0 0 0 0 0 0 0 0 0 0 0
0 0 0 0 0 0 0 0 0 0 0 0 0 0 0 0 0 0 0 0 0 0 0 0 0 0 0 0 0 0 0 0 0 0 0 0 0 0 0 0 0 0 0 0
0 0 0 0 0 0 0 0 0 0 0 0 0 0 0 0 0 0 0 0 0 0 0 0 0 0 0 0 0 0 0 0 0 0 0 0 0 0 0 0 0 0 0 0
0 0 0 0 0 0 0 0 0 0 0 0 0 0 0 0 0 0 0 0 0 0 0 0 0 0 0 0 0 0 0 0 0 0 0 0 0 0 0 0 0 0 0 0
0 0 0 0 0 0 0 0 0 0 0 0 0 0 0 0 0 0 0 0 0 0 0 0 0 0 0 0 0 0 0 0 0 0 0 0 0 0 0 0 0 0 0 0
0 0 0 0 0 0 0 0 0 0 0 0 0 0 0 0 0 0 0 0 0 0 0 0 0 0 0 0 0 0 0 0 0 0 0 0 0 0 0 0 0 0 0 0
0 0 0 0 0 0 0 0 0 0 0 0 0 0 0 0 0 0 0 0 0 0 0 0 0 0 0 0 0 0 0 0 0 0 0 0 0 0 0 0 0 0 0 0
0 0 0 0 0 0 0 0 0 0 0 0 0 0 0 0 0 0 0 0 0 0 0 0 0 0 0 0 0 0 0 0 0 0 0 0 0 0 0 0 0 0 0 0
0 0 0 0 0 0 0 0 0 0 0 0 0 0 0 0 0 0 0 0 0 0 0 0 0 0 0 0 0 0 0 0 0 0 0 0 0 0 0 0 0 0 0 0
0 0 0 0 0 0 0 0 0 0 0 0 0 0 0 0 0 0 0 0 0 0 0 0 0 0 0 0 0 0 0 0 0 0 0 0 0 0 0 0 0 0 0 0
0 0 0 0 0 0 0 0 0 0 0 0 0 0 0 0 0 0 0 0 0 0 0 0 0 0 0 0 0 0 0 0 0 0 0 0 0 0 0 0 0 0 0 0
0 0 0 0 0 0 0 0 0 0 0 0 0 0 0 0 0 0 0 0 0 0 0 0 0 0 0 0 0 0 0 0 0 0 0 0 0 0 0 0 0 0 0 0
Wind_Speed
5 3 3 4 4 6 7 7 8 7 7 7 5 5 6 4 2 2 3 4 6 7 7 7 7 7 8 9 8 8 9 10 12 10 8 8 8 8 8 8 10 9 8 8
1 1 2 3 4 5 5 4 6 4 6 3 3 2 4 5 3 2 1 2 3 3 4 6 7 8 8 8 7 7 9 11 9 7 8 8 9 8 8 9 8 8 9 9
2 2 2 4 5 5 4 3 5 6 4 1 3 5 5 5 4 4 3 3 2 2 2 3 4 5 7 7 6 7 8 8 7 7 8 9 9 8 9 10 8 9 10 10
2 2 4 7 1 4 4 2 3 2 1 3 4 4 5 6 6 6 6 6 6 4 3 3 2 0 2 3 4 5 5 5 5 6 7 6 6 9 9 7 8 9 10 10
4 2 5 4 2 3 4 3 4 4 4 4 5 4 7 8 8 7 7 6 6 5 4 5 5 3 4 4 3 2 3 4 4 5 6 6 8 9 8 7 8 9 7 10
4 3 6 6 2 2 3 4 4 5 4 2 2 3 2 5 7 8 8 8 7 7 9 10 8 6 7 6 5 3 2 2 1 2 4 5 6 6 5 6 8 8 8 9
4 3 7 4 1 3 4 7 2 4 3 2 3 3 3 3 6 7 8 9 8 10 11 9 7 7 9 7 5 3 3 4 4 2 1 3 3 3 4 4 5 6 8 8
4 2 8 2 4 6 6 1 3 4 4 6 7 7 6 7 8 8 8 9 9 10 10 8 7 8 9 7 5 4 5 5 5 4 4 3 2 3 3 3 4 6 6 8
8 8 5 3 4 2 3 3 3 4 6 9 9 7 7 7 7 7 7 8 7 8 8 8 8 7 8 5 4 5 6 6 5 5 4 3 3 3 3 2 3 4 5 6
3 6 4 3 2 2 3 5 6 8 9 10 10 8 7 6 5 6 6 6 5 7 7 6 6 6 4 4 4 5 5 5 4 4 5 4 3 2 2 3 3 4 5 6
4 5 2 3 3 4 5 7 8 8 8 9 11 9 6 5 5 4 4 3 4 5 5 4 4 5 5 4 4 5 4 4 4 4 4 4 4 3 4 4 5 5 5 6
7 7 6 4 3 6 8 8 10 11 9 7 8 8 6 5 3 3 3 2 3 3 3 3 3 4 4 4 3 3 3 4 3 3 4 4 4 6 6 7 10 11 11 10
3 1 3 3 5 6 8 9 9 9 9 8 6 6 6 4 3 3 2 2 2 1 1 2 3 4 4 4 3 3 2 3 3 4 4 5 5 6 8 8 10 11 13 13
3 5 5 4 5 8 10 11 10 9 8 7 6 6 5 4 3 2 1 0 1 1 2 2 3 4 4 4 3 3 4 5 5 4 5 5 6 6 7 8 9 9 10 13
5 6 8 8 10 10 9 10 11 8 7 6 5 5 4 4 2 1 1 1 1 2 3 3 3 5 5 4 4 4 4 4 4 5 5 6 6 7 7 9 9 9 9 10
8 11 12 13 11 10 9 9 8 6 5 4 3 3 2 2 1 2 2 2 2 3 4 3 4 4 4 4 4 4 4 9 8 6 6 7 7 8 8 9 9 10 10 11
9 8 9 10 9 8 7 6 6 4 3 3 2 1 0 0 1 3 4 3 2 2 2 3 4 4 4 4 4 4 5 7 10 7 6 7 8 8 9 9 10 10 10 11
8 8 8 9 8 7 6 5 3 3 2 2 1 0 1 2 3 5 4 3 2 3 3 2 3 3 4 5 4 4 4 5 6 6 7 7 8 9 9 9 11 12 11 11
10 10 9 8 7 6 4 3 2 1 1 1 1 2 3 4 4 4 3 2 2 3 4 4 5 4 4 6 6 3 5 6 7 7 7 9 9 8 9 10 10 11 11 11
10 9 9 7 5 3 2 1 1 1 2 1 2 2 3 4 3 2 1 1 2 2 2 3 4 4 5 6 7 4 5 6 7 7 8 8 9 9 9 10 10 11 11 10
8 6 5 3 2 1 1 1 1 3 3 2 2 3 3 3 2 1 0 1 2 2 3 4 3 4 4 5 6 5 5 6 7 7 8 8 9 9 9 10 10 10 10 10
3 2 1 1 1 2 3 2 2 3 3 2 2 2 2 2 2 2 1 1 1 3 3 3 3 5 6 6 5 5 6 7 7 7 7 8 8 9 9 10 10 10 10 10
1 1 1 2 2 3 3 2 2 2 2 2 2 1 1 0 0 0 1 1 1 3 3 3 5 8 9 5 5 6 6 7 7 7 8 8 8 8 9 10 9 10 10 10
2 2 2 2 1 1 3 4 3 2 2 2 1 1 1 1 1 2 1 2 4 4 4 5 8 9 8 5 5 6 6 7 7 7 8 8 8 8 8 9 9 9 9 11
1 2 2 2 2 1 3 3 3 2 2 2 2 2 2 1 1 2 3 4 5 4 4 5 8 9 6 5 5 6 6 6 7 7 7 8 8 8 8 9 9 9 9 9
2 2 2 2 2 2 2 2 2 2 1 1 2 2 2 3 3 3 3 4 5 5 4 4 5 6 5 5 6 6 6 7 7 7 8 8 9 9 8 9 12 9 9 9
2 1 1 2 2 2 2 2 2 2 1 1 0 1 2 2 3 4 4 4 4 3 3 4 4 4 5 5 6 6 6 6 7 7 7 8 8 8 9 11 9 9 9 9
Wind_Direction
224 223 178 210 213 181 186 192 195 229 230 264 292 295 298 292 241 188 218 220 219 222 223 217 211 209 208 210 200 187 188 199 211 210 205 205 206 209 210 211 217 216 218 224
260 253 196 233 243 208 212 208 220 244 258 270 316 341 357 7 35 64 4 283 260 243 230 220 216 213 209 208 196 182 195 209 210 201 201 208 213 213 213 217 219 217 221 225
243 323 33 263 233 194 200 210 194 213 232 16 39 33 18 19 38 44 34 23 360 311 277 260 239 216 212 209 181 185 205 215 209 204 209 214 214 213 219 221 219 222 227 227
143 90 234 251 268 168 164 212 218 211 168 125 119 100 53 37 44 41 33 30 19 13 9 349 338 266 166 136 158 190 214 225 219 212 222 221 216 223 226 221 219 226 230 230
129 181 268 280 210 166 167 243 204 180 176 167 163 99 41 25 38 46 41 37 29 24 26 32 30 38 85 87 104 144 223 237 228 218 226 223 226 232 229 221 226 226 227 227
129 167 237 249 216 161 114 279 216 179 190 198 139 84 25 7 34 45 46 46 42 39 45 42 28 46 67 61 57 33 351 335 314 230 230 236 241 243 235 228 237 238 240 237
154 210 261 254 176 123 174 243 200 156 148 109 93 124 137 59 51 50 51 49 49 54 51 38 30 55 60 51 39 16 24 37 36 25 306 266 262 254 249 246 251 251 252 251
143 190 259 214 145 186 213 197 116 112 106 105 105 98 87 72 61 54 54 53 52 58 50 34 33 57 58 42 22 32 46 45 36 27 16 6 339 308 283 266 268 270 269 272
185 211 237 208 206 216 163 142 133 123 120 120 111 101 89 75 67 59 58 56 54 63 55 37 32 50 56 21 16 40 44 36 22 13 7 359 352 335 327 308 283 282 281 282
240 263 254 232 213 189 159 141 134 131 128 123 117 111 101 90 78 67 57 54 54 61 57 36 22 33 34 6 19 44 38 20 10 5 353 348 342 327 317 307 299 297 294 290
249 268 286 260 201 156 124 116 111 107 110 118 116 112 109 101 90 81 71 60 63 70 64 34 16 18 10 9 28 39 26 9 359 352 343 337 332 311 301 279 270 277 281 280
226 225 192 216 164 139 124 118 117 114 103 105 113 116 109 102 98 94 86 76 71 65 52 17 6 360 354 1 22 32 10 349 338 331 325 322 319 315 297 284 290 285 271 268
234 141 132 109 100 103 109 109 109 111 116 114 105 110 111 107 103 98 87 77 73 46 3 342 343 339 336 346 2 7 339 322 317 318 316 314 312 310 311 310 300 293 288 285
136 108 88 84 95 96 102 102 98 93 96 104 105 104 104 105 105 101 95 279 282 310 317 321 327 325 328 338 346 339 326 319 316 305 306 306 305 303 301 303 307 305 300 294
64 96 115 106 93 90 94 100 97 93 90 86 93 105 112 118 131 199 270 297 321 325 322 328 326 320 330 341 339 330 325 315 311 307 307 305 304 303 301 299 298 299 301 301
82 84 94 97 96 94 93 97 100 99 101 103 107 120 142 156 193 279 294 311 319 306 310 319 313 311 327 339 337 330 323 324 327 317 314 313 312 310 309 306 304 304 303 303
95 94 98 100 97 96 97 102 113 122 122 129 154 166 154 344 313 300 301 315 302 285 293 294 296 311 330 337 334 326 322 322 327 323 315 314 314 312 310 307 305 304 302 301
89 99 107 111 108 101 91 89 103 123 147 178 160 130 280 270 268 276 293 316 332 330 324 313 314 327 336 337 334 324 321 318 319 317 317 317 315 311 309 308 308 308 307 306
79 83 84 87 96 102 109 128 156 178 215 218 223 259 265 267 270 281 297 317 318 312 316 333 345 350 342 337 343 329 327 326 325 322 321 317 316 316 315 313 311 311 312 313
73 76 79 82 91 109 138 180 217 271 285 282 277 284 290 292 296 294 314 310 278 267 301 337 348 349 343 340 349 340 335 332 329 327 326 324 322 320 319 319 319 318 318 317
62 65 71 72 53 17 336 317 295 291 298 292 260 263 273 290 304 298 307 308 318 354 1 3 6 355 350 350 351 344 340 336 332 330 327 325 322 322 321 321 320 319 320 321
44 33 20 347 339 320 315 316 297 292 301 300 283 272 284 314 349 16 24 233 314 13 27 18 9 7 6 3 354 347 343 338 333 330 327 326 325 324 322 322 321 323 323 323
334 302 307 308 296 295 317 328 323 308 297 297 297 304 310 328 1 82 338 2 37 51 46 27 15 14 9 4 353 348 344 340 336 333 330 328 326 325 324 325 327 329 329 331
311 322 322 318 339 360 344 331 333 328 327 337 348 27 107 95 45 41 90 73 67 62 47 27 20 15 12 6 356 350 344 340 337 334 332 330 330 330 330 330 330 330 331 332
315 331 344 359 359 317 299 312 332 349 5 14 20 30 39 78 105 79 76 75 70 58 40 24 20 18 16 4 357 350 346 344 342 339 336 335 335 333 332 332 333 332 332 333
331 322 309 292 277 279 294 305 303 303 317 1 19 33 49 63 81 84 81 74 63 49 37 22 15 15 10 2 355 352 350 346 345 344 340 338 336 337 336 336 335 335 334 334
349 345 338 335 326 315 304 288 274 276 265 217 99 61 73 78 81 80 77 70 57 43 32 23 16 11 7 4 360 358 354 351 348 346 344 342 340 339 338 338 338 337 338 340